Weather History for Tulsa, OK

Change the Weather History Date:

Tuesday, November 6, 2012

  Actual Average Record
Temperature  
Mean Temperature 52 °F 55 °F  
Max Temperature 69 °F 66 °F 87 °F (1945)
Min Temperature 34 °F 44 °F 20 °F (1959)
Degree Days  
Heating Degree Days 13 11  
Month to date heating degree days 51 60  
Since 1 July heating degree days 268 246  
Growing Degree Days 2 (Base 50)    
Moisture  
Dew Point 36 °F    
Average Humidity 62    
Maximum Humidity 92    
Minimum Humidity 31    
Precipitation  
Precipitation 0.00 in 0.11 in 3.49 in (1996)
Month to date precipitation 0.00 0.67  
Year to date precipitation 26.78 36.34  
Sea Level Pressure  
Sea Level Pressure 30.09 in    
Wind  
Wind Speed 5 mph (WNW)    
Max Wind Speed 15 mph    
Max Gust Speed 20 mph    
Visibility 10 miles    
Events      
T = Trace of Precipitation, MM = Missing Value Source: NWS Daily Summary

Daily Weather History Graph

Daily Weather History Graph

Search for Another Location

Airport:

Trip Planner

Search our weather history database for the weather conditions in past years. The results will help you decide how hot, cold, wet, or windy it might be!

Date:

Astronomy

Nov. 06, 2012 Rise Set
Actual Time 6:51 AM CST 5:22 PM CST
Civil Twilight 6:24 AM CST 5:48 PM CST
Nautical Twilight 5:54 AM CST 6:19 PM CST
Astronomical Twilight 5:24 AM CST 6:49 PM CST
Moon 11:59 PM CST (11/6) 12:46 PM CST (11/6)
Length of Visible Light 11h 24m
Length of Day
10h 30m
Waning Gibbous, 53% of the Moon is Illuminated
Nov 6
Waning Gibbous
Nov 6
Last Quarter
Nov 13
New
Nov 20
First Quarter
Nov 28
Full

Hourly Weather History & Observations

Time (CST) Temp. Windchill Dew Point Humidity Pressure Visibility Wind Dir Wind Speed Gust Speed Precip Events Conditions
12:53 AM 41.0 °F 38.0 °F 37.0 °F 86% 30.11 in 10.0 mi NW 4.6 mph - N/A   Partly Cloudy
1:53 AM 39.9 °F - 36.0 °F 86% 30.09 in 10.0 mi Calm Calm - N/A   Partly Cloudy
2:53 AM 39.0 °F 34.8 °F 36.0 °F 89% 30.11 in 10.0 mi West 5.8 mph - N/A   Clear
3:53 AM 39.9 °F - 37.0 °F 89% 30.10 in 10.0 mi Calm Calm - N/A   Clear
4:53 AM 39.0 °F 36.8 °F 36.0 °F 89% 30.11 in 10.0 mi WSW 3.5 mph - N/A   Clear
5:53 AM 35.1 °F - 34.0 °F 96% 30.10 in 8.0 mi Calm Calm - N/A   Clear
6:53 AM 35.1 °F - 34.0 °F 96% 30.13 in 9.0 mi Calm Calm - N/A   Partly Cloudy
7:53 AM 42.1 °F - 39.0 °F 89% 30.14 in 10.0 mi Calm Calm - N/A   Partly Cloudy
8:53 AM 46.0 °F - 39.9 °F 79% 30.14 in 10.0 mi Calm Calm - N/A   Partly Cloudy
9:53 AM 51.1 °F - 39.0 °F 63% 30.12 in 10.0 mi WSW 8.1 mph - N/A   Partly Cloudy
10:53 AM 53.1 °F - 39.9 °F 61% 30.11 in 10.0 mi Variable 3.5 mph - N/A   Partly Cloudy
11:53 AM 57.9 °F - 39.0 °F 49% 30.07 in 10.0 mi SW 8.1 mph - N/A   Partly Cloudy
12:53 PM 63.0 °F - 39.0 °F 41% 30.05 in 10.0 mi West 4.6 mph - N/A   Scattered Clouds
1:53 PM 64.9 °F - 39.0 °F 39% 30.05 in 10.0 mi WNW 10.4 mph 18.4 mph N/A   Partly Cloudy
2:53 PM 68.0 °F - 39.0 °F 35% 30.02 in 10.0 mi WNW 10.4 mph - N/A   Clear
3:53 PM 69.1 °F - 37.9 °F 32% 30.02 in 10.0 mi WNW 10.4 mph - N/A   Clear
4:53 PM 64.9 °F - 37.0 °F 36% 30.03 in 10.0 mi NNW 8.1 mph - N/A   Clear
5:53 PM 57.9 °F - 36.0 °F 44% 30.05 in 10.0 mi NNW 6.9 mph - N/A   Clear
6:53 PM 55.9 °F - 34.0 °F 44% 30.07 in 10.0 mi NW 8.1 mph - N/A   Clear
7:53 PM 55.0 °F - 33.1 °F 43% 30.09 in 10.0 mi NW 6.9 mph - N/A   Clear
8:53 PM 54.0 °F - 33.1 °F 45% 30.11 in 10.0 mi NW 8.1 mph - N/A   Clear
9:53 PM 46.9 °F - 33.1 °F 59% 30.12 in 10.0 mi NW 5.8 mph - N/A   Clear
10:53 PM 50.0 °F - 32.0 °F 50% 30.11 in 10.0 mi Calm Calm - N/A   Clear
11:53 PM 46.9 °F - 33.1 °F 59% 30.12 in 10.0 mi West 5.8 mph - N/A   Clear